Location: Charlie Creek
(39.7778°N, 95.2950°W)
Time: 13:19:58
(UTC+00:00)

Daily predictions for brighter satellites

Satellite Brightness Start Highest point End
(mag) Time Altitude Azimuth Time Altitude Azimuth Time Altitude Azimuth
USA 116 3.6 12:01:17 10° S 12:05:20 71° W 12:08:55 10° NNW
Cosmos 1954 Rocket 4.3 12:01:06 10° SW 12:06:05 44° WNW 12:11:05 10° N
Cosmos 1470 4.5 12:04:37 10° WNW 12:06:31 13° W 12:08:23 10° WSW
Cosmos 1707 4.3 12:04:10 10° WSW 12:06:41 16° WNW 12:09:11 10° NNW
Cosmos 1356 3.8 12:05:48 10° NNW 12:09:04 40° W 12:12:19 10° SSW
Cosmos 2218 Rocket 4.3 12:03:29 10° S 12:09:52 78° E 12:16:13 10° N
